OpenBCM V1.07b12 (Linux)

Packet Radio Mailbox

DB0FHN

[JN59NK Nuernberg]

 Login: GUEST





  
F1EBE  > KEPLER   22.02.03 11:56l 105 Lines 5485 Bytes #999 (0) @ EU
BID : 22543_F8KOH
Read: DB0FHN GUEST
Subj: 2L Satell Amat  051.day
Path: DB0FHN<DB0ZWI<DB0CHZ<DB0ERF<DB0FBB<DB0IUZ<DB0ACH<DB0LJ<DB0GE<LX0PAC<
      F6KIF<F1HCI<F6KDS<F5KCK<F8KAE<F8KOH
Sent: 030221/0815Z @:F8KOH.FNOR.FRA.EU #:22543 [Vernon] FBB7.00i $:22543_F8KOH
From: F1EBE@F8KOH.FNOR.FRA.EU
To  : KEPLER@EU


AO-7                    
1 07530U 74089B   03049.69169250 -.00000029  00000-0  10000-3 0  1535
2 07530 101.7618  97.4779 0012275  77.6699 282.5749 12.53564392293208
AO-10                   
1 14129U 83058B   03050.37921519 -.00000303  00000-0  10000-3 0  9177
2 14129  25.9543 164.1610 6026559 329.0466   6.3565  2.05869657120083
UO-11                   
1 14781U 84021B   03051.23606607  .00001815  00000-0  25880-3 0   751
2 14781  98.1183  25.1713 0008646 199.7462 160.3414 14.78008182 16481
UO-14                   
1 20437U 90005B   03050.75711020  .00000168  00000-0  79108-4 0  1683
2 20437  98.2732  94.3145 0010159 195.0038 165.0846 14.31238955682666
AO-16                   
1 20439U 90005D   03049.58354644  .00000222  00000-0  99095-4 0  8549
2 20439  98.3176 104.8808 0010370 205.1190 154.9504 14.31472797682539
DO-17                   
1 20440U 90005E   03050.55084886  .00000238  00000-0  10464-3 0  7287
2 20440  98.3375 109.7029 0010314 201.7424 158.3330 14.31751247682749
WO-18                   
1 20441U 90005F   03051.24180961  .00000190  00000-0  87063-4 0   163
2 20441  98.3335 109.5759 0011190 199.6931 160.3822 14.31554947682821
LO-19                   
1 20442U 90005G   03050.73083583  .00000208  00000-0  93496-4 0  9671
2 20442  98.3445 112.1108 0011396 201.0439 159.0276 14.31718110682801
FO-20                   
1 20480U 90013C   03049.93556543  .00000011  00000-0  97569-4 0  4697
2 20480  99.0470  12.6088 0540649   3.0521 357.3664 12.83330411610567
RS-12/13                
1 21089U 91007A   03049.90466873  .00000078  00000-0  67049-4 0  4996
2 21089  82.9228 181.1283 0027875 287.2823  72.5281 13.74404516603838
UO-22                   
1 21575U 91050B   03051.38500422  .00000415  00000-0  14720-3 0  7308
2 21575  98.1408  43.4140 0008242 122.8069 237.3914 14.39157672608549
KO-23                   
1 22077U 92052B   03049.95635298 -.00000037  00000-0  10000-3 0  2133
2 22077  66.0872 124.9187 0015562 273.5841  86.3395 12.86408451494358
AO-27                   
1 22825U 93061C   03050.87289159  .00000184  00000-0  89136-4 0  4905
2 22825  98.2748  80.5031 0007446 254.5614 105.4748 14.28944338490068
IO-26                   
1 22826U 93061D   03050.55290949  .00000207  00000-0  97809-4 0  3125
2 22826  98.2762  81.3165 0008030 257.9086 102.1206 14.29167221490064
KO-25                   
1 22828U 93061F   03050.60299195  .00000188  00000-0  89680-4 0  4290
2 22828  98.2711  81.6266 0009085 233.0236 127.0115 14.29509295458271
POSAT                   
1 22829U 93061G   03050.54201427  .00000284  00000-0  12633-3 0  4543
2 22829  98.2721  82.1750 0008954 233.1945 126.8425 14.29769880490195
RS-15                   
1 23439U 94085A   03049.29359592 -.00000042  00000-0  24083-5 0  6825
2 23439  64.8151  41.9255 0146804 115.2566 246.3616 11.27547528335565
FO-29                   
1 24278U 96046B   03049.98530178  .00000027  00000-0  65133-4 0  5611
2 24278  98.5351 201.1475 0350170 215.3253 142.4226 13.52872814321360
TO-31                   
1 25396U 98043C   03050.51986494 -.00000043  00000-0  00000+0 0  8247
2 25396  98.6274 127.6098 0003770 124.1545 235.9993 14.23511162239667
GO-32                   
1 25397U 98043D   03049.97952289  .00000091  00000-0  59533-4 0  1404
2 25397  98.6224 125.9592 0002080 127.9193 232.2176 14.22960239239559
SO-33                   
1 25509U 98061B   03050.35047537  .00000955  00000-0  17903-3 0  7830
2 25509  31.4306 148.7509 0358145 309.6056  47.3506 14.27438028225428
PO-34                   
1 25520U 98064B   03050.68001948  .00002981  00000-0  15016-3 0  6392
2 25520  28.4608 216.4578 0005432   2.2865 357.7711 15.13896998237758
ISS           
1 25544U 98067A   03051.50805334  .00019282  00000-0  25203-3 0  7105
2 25544  51.6328 246.2553 0012062 225.9989 220.8726 15.58585942242804
UO-36                   
1 25693U 99021A   03051.31128286  .00000461  00000-0  85828-4 0  7204
2 25693  64.5610   5.4527 0020519 315.7447  44.2014 14.76393155206513
OO-38                   
1 26063U 00004C   03050.18255638  .00000196  00000-0  88127-4 0  7249
2 26063 100.2130 104.8749 0036857 285.5544  74.1564 14.35482296160470
SO-41                   
1 26545U 00057A   03051.03336480  .00001087  00000-0  16298-3 0  4147
2 26545  64.5589  27.4201 0052013 238.4877 121.1083 14.78989248129432
MO-46                   
1 26548U 00057D   03050.04093145  .00001754  00000-0  23906-3 0  4176
2 26548  64.5581  23.3546 0045278 238.0922 121.5724 14.81278907129439
SO-42                   
1 26549U 00057E   03050.46150439  .00001422  00000-0  21149-3 0  6961
2 26549  64.5512  33.2956 0056463 238.8778 120.6775 14.77926519129276
AO-40                   
1 26609U 00072B   03046.24037137 -.00000118  00000-0  10000-3 0  3115
2 26609   8.0800  64.6767 7942000 144.0329 312.8612  1.25596569 10543
NO-44                   
1 26931U 01043C   03051.20482476  .00000219  00000-0  11896-3 0  4064
2 26931  67.0472 251.4028 0005007 267.0283  93.0245 14.29116961 72586
NO-45                   
1 26932U 01043D   03050.55288746  .00000171  00000-0  99446-4 0  4005
2 26932  67.0539 252.7858 0004840 242.0659 117.9953 14.29295534 72519
AO-49                   
1 27605U 02058A   03050.93938975  .00001427  00000-0  24915-3 0   636
2 27605  64.5519 193.0741 0035714 113.1672 247.3195 14.71379641  9012
SO-50                   
1 27607U 02058C   03050.45899906  .00001524  00000-0  27328-3 0   566
2 27607  64.5502 194.9793 0037417 109.8878 250.6243 14.69910636  8938



Read previous mail | Read next mail


 18.09.2025 21:08:06lGo back Go up